Weather History for Delaware, OH

Change the Weather History Date:

Sunday, September 29, 2013

  Actual Average Record
Temperature  
Mean Temperature 60 °F -  
Max Temperature 71 °F 71 °F 97 °F (1953)
Min Temperature 50 °F 44 °F 28 °F (1942)
Degree Days  
Heating Degree Days 4    
Growing Degree Days 10 (Base 50)    
Moisture  
Dew Point 53 °F    
Average Humidity 79    
Maximum Humidity 94    
Minimum Humidity 53    
Precipitation  
Precipitation 0.01 in - - ()
Sea Level Pressure  
Sea Level Pressure 30.05 in    
Wind  
Wind Speed 3 mph (SSW)    
Max Wind Speed 10 mph    
Max Gust Speed -    
Visibility 10 miles    
Events Rain    
Averages and records for this station are not official NWS values.
T = Trace of Precipitation, MM = Missing Value Source: NWS Daily Summary

Daily Weather History Graph

Daily Weather History Graph

Search for Another Location

Airport:

Trip Planner

Search our weather history database for the weather conditions in past years. The results will help you decide how hot, cold, wet, or windy it might be!

Date:

Astronomy

Sep. 29, 2013 Rise Set
Actual Time 7:27 AM EDT 7:17 PM EDT
Civil Twilight 6:59 AM EDT 7:44 PM EDT
Nautical Twilight 6:28 AM EDT 8:16 PM EDT
Astronomical Twilight 5:56 AM EDT 8:47 PM EDT
Moon 2:06 AM EDT (9/29) 4:13 PM EDT (9/29)
Length of Visible Light 12h 44m
Length of Day
11h 50m
Waning Crescent, 27% of the Moon is Illuminated
Sep 29
Waning Crescent
Oct 4
New
Oct 11
First Quarter
Oct 18
Full
Oct 26
Last Quarter

Hourly Weather History & Observations

Time (EDT) Temp. Dew Point Humidity Pressure Visibility Wind Dir Wind Speed Gust Speed Precip Events Conditions
12:16 AM 51.8 °F 50.0 °F 94% 30.09 in 10.0 mi Calm Calm - N/A   Clear
12:36 AM 51.8 °F 50.0 °F 94% 30.10 in 10.0 mi SSE 3.5 mph - N/A   Clear
12:56 AM 53.6 °F 50.0 °F 88% 30.10 in 10.0 mi SSE 4.6 mph - N/A   Clear
1:16 AM 53.6 °F 50.0 °F 88% 30.09 in 10.0 mi SSE 4.6 mph - N/A   Clear
1:37 AM 51.8 °F 50.0 °F 94% 30.10 in 10.0 mi SSE 3.5 mph - N/A   Clear
1:56 AM 50.0 °F 48.2 °F 94% 30.10 in 10.0 mi Calm Calm - N/A   Clear
2:16 AM 50.0 °F 48.2 °F 94% 30.09 in 10.0 mi SSE 3.5 mph - N/A   Clear
2:37 AM 50.0 °F 48.2 °F 94% 30.09 in 10.0 mi Calm Calm - N/A   Clear
2:56 AM 51.8 °F 50.0 °F 94% 30.09 in 10.0 mi SSE 3.5 mph - N/A   Mostly Cloudy
3:16 AM 53.6 °F 51.8 °F 94% 30.08 in 10.0 mi SSE 3.5 mph - N/A   Mostly Cloudy
3:37 AM 51.8 °F 50.0 °F 94% 30.08 in 10.0 mi SSE 3.5 mph - N/A   Mostly Cloudy
3:56 AM 51.8 °F 50.0 °F 94% 30.07 in 10.0 mi Calm Calm - N/A   Scattered Clouds
4:16 AM 50.0 °F 48.2 °F 94% 30.07 in 10.0 mi Calm Calm - N/A   Scattered Clouds
4:37 AM 50.0 °F 46.4 °F 87% 30.07 in 10.0 mi Calm Calm - N/A   Scattered Clouds
4:56 AM 50.0 °F 46.4 °F 87% 30.07 in 7.0 mi Calm Calm - N/A   Clear
5:16 AM 50.0 °F 48.2 °F 94% 30.07 in 10.0 mi Calm Calm - N/A   Clear
5:37 AM 51.8 °F 50.0 °F 94% 30.07 in 10.0 mi Calm Calm - N/A   Mostly Cloudy
5:56 AM 53.6 °F 51.8 °F 94% 30.07 in 10.0 mi Calm Calm - N/A   Mostly Cloudy
6:16 AM 51.8 °F 50.0 °F 94% 30.07 in 10.0 mi SSE 4.6 mph - N/A   Mostly Cloudy
6:37 AM 51.8 °F 50.0 °F 94% 30.07 in 10.0 mi Calm Calm - N/A   Scattered Clouds
6:56 AM 50.0 °F 48.2 °F 94% 30.07 in 7.0 mi SSE 3.5 mph - N/A   Clear
7:16 AM 53.6 °F 51.8 °F 94% 30.07 in 7.0 mi SSE 3.5 mph - N/A   Scattered Clouds
7:37 AM 53.6 °F 51.8 °F 94% 30.08 in 7.0 mi SSE 4.6 mph - N/A   Scattered Clouds
7:56 AM 53.6 °F 51.8 °F 94% 30.08 in 7.0 mi SSE 3.5 mph - 0.01 in   Mostly Cloudy
8:16 AM 55.4 °F 51.8 °F 88% 30.08 in 7.0 mi SSE 3.5 mph - N/A   Scattered Clouds
8:37 AM 55.4 °F 53.6 °F 94% 30.08 in 10.0 mi SSE 4.6 mph - N/A   Scattered Clouds
8:56 AM 57.2 °F 53.6 °F 88% 30.08 in 10.0 mi Calm Calm - N/A   Scattered Clouds
9:16 AM 59.0 °F 53.6 °F 82% 30.07 in 10.0 mi SSE 4.6 mph - N/A   Clear
9:37 AM 60.8 °F 55.4 °F 82% 30.07 in 10.0 mi SSE 5.8 mph - N/A   Clear
9:56 AM 62.6 °F 55.4 °F 77% 30.07 in 10.0 mi South 4.6 mph - N/A   Clear
10:17 AM 62.6 °F 55.4 °F 77% 30.07 in 10.0 mi SSE 5.8 mph - N/A   Clear
10:36 AM 62.6 °F 55.4 °F 77% 30.07 in 10.0 mi SSE 4.6 mph - N/A   Clear
10:56 AM 64.4 °F 55.4 °F 73% 30.07 in 10.0 mi South 4.6 mph - N/A   Mostly Cloudy
11:17 AM 69.8 °F 55.4 °F 60% 30.07 in 10.0 mi SW 6.9 mph - N/A   Mostly Cloudy
11:36 AM 68.0 °F 55.4 °F 64% 30.07 in 10.0 mi South 5.8 mph - N/A   Scattered Clouds
11:56 AM 68.0 °F 55.4 °F 64% 30.06 in 10.0 mi SSW 5.8 mph - N/A   Scattered Clouds
12:17 PM 68.0 °F 53.6 °F 60% 30.06 in 10.0 mi South 5.8 mph - N/A   Mostly Cloudy
12:36 PM 68.0 °F 55.4 °F 64% 30.06 in 10.0 mi South 3.5 mph - N/A   Scattered Clouds
12:56 PM 69.8 °F 55.4 °F 60% 30.06 in 10.0 mi South 4.6 mph - N/A   Mostly Cloudy
1:17 PM 69.8 °F 55.4 °F 60% 30.06 in 10.0 mi South 5.8 mph - N/A   Mostly Cloudy
1:36 PM 71.6 °F 55.4 °F 57% 30.05 in 10.0 mi SSW 5.8 mph - N/A   Overcast
1:56 PM 71.6 °F 55.4 °F 57% 30.04 in 10.0 mi SSW 8.1 mph - N/A   Overcast
2:17 PM 71.6 °F 53.6 °F 53% 30.02 in 10.0 mi SW 5.8 mph - N/A   Overcast
2:36 PM 69.8 °F 53.6 °F 56% 30.02 in 10.0 mi WSW 5.8 mph - N/A   Overcast
2:56 PM 69.8 °F 55.4 °F 60% 30.01 in 10.0 mi West 3.5 mph - N/A   Overcast
3:17 PM 69.8 °F 53.6 °F 56% 30.01 in 10.0 mi WSW 5.8 mph - N/A   Overcast
3:36 PM 68.0 °F 53.6 °F 60% 30.03 in 10.0 mi West 9.2 mph - N/A   Overcast
3:56 PM 66.2 °F 55.4 °F 68% 30.03 in 10.0 mi West 8.1 mph - N/A   Overcast
4:17 PM 64.4 °F 55.4 °F 73% 30.02 in 10.0 mi West 6.9 mph - N/A   Overcast
4:36 PM 66.2 °F 55.4 °F 68% 30.02 in 10.0 mi WSW 8.1 mph - N/A   Overcast
4:56 PM 68.0 °F 55.4 °F 64% 30.02 in 10.0 mi WSW 9.2 mph - N/A   Overcast
5:17 PM 66.2 °F 55.4 °F 68% 30.02 in 10.0 mi SW 6.9 mph - N/A   Overcast
5:36 PM 64.4 °F 55.4 °F 73% 30.02 in 10.0 mi WSW 10.4 mph - N/A   Overcast
5:56 PM 64.4 °F 55.4 °F 73% 30.03 in 10.0 mi SW 4.6 mph - N/A   Overcast
6:17 PM 64.4 °F 55.4 °F 73% 30.02 in 10.0 mi WSW 3.5 mph - N/A   Overcast
6:36 PM 62.6 °F 55.4 °F 77% 30.03 in 10.0 mi SW 4.6 mph - N/A Rain Rain
6:56 PM 62.6 °F 57.2 °F 82% 30.02 in 10.0 mi SW 3.5 mph - N/A   Overcast
7:17 PM 62.6 °F 55.4 °F 77% 30.02 in 10.0 mi Calm Calm - N/A   Overcast
7:36 PM 62.6 °F 55.4 °F 77% 30.02 in 10.0 mi SSW 3.5 mph - N/A   Overcast
7:57 PM 62.6 °F 55.4 °F 77% 30.02 in 10.0 mi SSW 3.5 mph - N/A   Overcast
8:16 PM 62.6 °F 55.4 °F 77% 30.02 in 10.0 mi SSW 4.6 mph - N/A   Overcast
8:36 PM 62.6 °F 55.4 °F 77% 30.02 in 10.0 mi SW 5.8 mph - N/A   Overcast
8:57 PM 62.6 °F 55.4 °F 77% 30.03 in 10.0 mi SW 5.8 mph - N/A   Overcast
9:16 PM 62.6 °F 55.4 °F 77% 30.03 in 10.0 mi SW 5.8 mph - N/A   Overcast
9:36 PM 62.6 °F 55.4 °F 77% 30.02 in 10.0 mi SSW 5.8 mph - N/A   Overcast
9:57 PM 60.8 °F 55.4 °F 82% 30.03 in 10.0 mi SSW 4.6 mph - N/A   Overcast
10:16 PM 62.6 °F 55.4 °F 77% 30.03 in 10.0 mi SSW 5.8 mph - N/A   Overcast
10:36 PM 60.8 °F 55.4 °F 82% 30.03 in 10.0 mi SSW 3.5 mph - N/A   Overcast
10:57 PM 62.6 °F 55.4 °F 77% 30.03 in 10.0 mi SSW 5.8 mph - N/A   Overcast
11:16 PM 62.6 °F 55.4 °F 77% 30.03 in 10.0 mi SW 4.6 mph - N/A   Overcast
11:36 PM 60.8 °F 55.4 °F 82% 30.03 in 10.0 mi SSW 3.5 mph - N/A   Overcast
11:57 PM 60.8 °F 57.2 °F 88% 30.03 in 10.0 mi SSW 3.5 mph - N/A   Overcast